INTELSAT 33E DEB, 62001

Orbit data source: Space-Track

INTELSAT 33E DEB, 62001 is space debris in GEO originally from a launch on Wed, 24 Aug 2016 UTC launched from the French Guiana (FRGUI). Debris objects in space refer to the collection of defunct objects orbiting the Earth. Examples of debris include non-operational satellites, rocket bodies, and fragments generated from explosions, collisions, or faulty payload assembly.

Not visible in the next 10 days
Identifier
62001, 2016-053T
Orbit
GEO
Country
Flag of UnknownUnknown / ITSO
Related business
Manufacturer
Boeing/ES
Mission
Spacecraft
Bus & Motor
Unknown
Mass
Unknown
Launch date (UTC)
2016-08-24 (9 years ago)
Launch vehicle
Unknown
Launch site
French Guiana (FRGUI)
Object type
Payload
Rocket body
Debris
Shape & HBR
Unknown shape, 1.1 m
Radar Cross Section
RCS unknown

Expand to show TLE details & history
Last TLE update: 3 days ago

TLE from 3 days ago
0 INTELSAT 33E DEB
1 62001U 16053T   25311.58886635 -.00000299  00000-0  00000-0 0  9996
2 62001   0.9013  58.5330 0043037 357.5069 304.4007  1.00208204  3862
Epoch: 2025-11-07T14:07Z
TLE epoch observation values (Epoch: 2025-11-07T14:07:58.052Z)
Latitude
-0.7461°
Longitude
100.98058°
Altitude
35,701.389 km
Speed
3.082 km/s
True Right ascension
00h 00m 00s
True Declination
0° 44' 43"
Sunlit
Object was in daylight at epoch
Visualization orbit readout
Latitude
Unknown
Longitude
Unknown
Altitude
Unknown
Speed
Unknown
Apparent Right ascension
Unknown
Apparent Declination
Unknown
Sunlit
N/A
Visualization observer readout
Local Sidereal Time
04:14:50
Azimuth
Unknown
Elevation
Unknown
Doppler factor
Unknown
Orbital elements
Apogee altitude
35,987.044 km
Perigee altitude
35,623.952 km
Semi-major axis
42,183.635 km
Eccentricity
0.0043
Inclination
0.9013°
RAAN
58.533°
Arg. of periapsis
357.5069°
True anomaly
303.99255°
Mean anomaly
304.4007°
Eccentric anomaly
304.19675°
Mean motion
0.25051 °/min
Orbital period
1,437.06 mins
BSTAR
0
Loading maneuver chart data...
Computing Atmospheric mass density...
Loading historical data...
Loading historical data...
Loading historical data...
Loading historical data...
Loading historical data...
Loading historical data...
Loading historical data...

Documentation

Showing up to 5 results
|